Weather History for Redwood Falls, MN

Change the Weather History Date:

Sunday, May 12, 2013

  Actual Average Record
Temperature  
Mean Temperature 46 °F -  
Max Temperature 62 °F 68 °F 90 °F (1940)
Min Temperature 30 °F 44 °F 25 °F (1946)
Degree Days  
Heating Degree Days 20    
Moisture  
Dew Point 19 °F    
Average Humidity 36    
Maximum Humidity 69    
Minimum Humidity 17    
Precipitation  
Precipitation 0.00 in - - ()
Sea Level Pressure  
Sea Level Pressure 30.20 in    
Wind  
Wind Speed 8 mph (NW)    
Max Wind Speed 15 mph    
Max Gust Speed 23 mph    
Visibility 10 miles    
Events      
Averages and records for this station are not official NWS values.
T = Trace of Precipitation, MM = Missing Value Source: NWS Daily Summary

Daily Weather History Graph

Daily Weather History Graph

Search for Another Location

Airport:

Trip Planner

Search our weather history database for the weather conditions in past years. The results will help you decide how hot, cold, wet, or windy it might be!

Date:

Astronomy

May. 12, 2013 Rise Set
Actual Time 5:55 AM CDT 8:38 PM CDT
Civil Twilight 5:22 AM CDT 9:11 PM CDT
Nautical Twilight 4:40 AM CDT 9:54 PM CDT
Astronomical Twilight 3:51 AM CDT 10:43 PM CDT
Moon 7:50 AM CDT (5/12) 11:07 PM CDT (5/12)
Length of Visible Light 15h 49m
Length of Day
14h 42m
Waxing Crescent, 7% of the Moon is Illuminated
May 12
Waxing Crescent
May 17
First Quarter
May 24
Full
May 31
Last Quarter
Jun 8
New

Hourly Weather History & Observations

Time (CDT) Temp. Windchill Dew Point Humidity Pressure Visibility Wind Dir Wind Speed Gust Speed Precip Events Conditions
12:53 AM 39.9 °F 34.5 °F 19.0 °F 43% 30.25 in 10.0 mi NNW 8.1 mph - N/A   Clear
1:53 AM 37.9 °F 32.1 °F 19.0 °F 47% 30.26 in 10.0 mi NW 8.1 mph - N/A   Clear
2:53 AM 33.1 °F 26.1 °F 19.9 °F 59% 30.25 in 10.0 mi WNW 8.1 mph - N/A   Clear
3:53 AM 32.0 °F 24.8 °F 19.9 °F 61% 30.25 in 10.0 mi WNW 8.1 mph - N/A   Clear
4:53 AM 30.9 °F 22.8 °F 21.0 °F 67% 30.25 in 10.0 mi WNW 9.2 mph - N/A   Clear
5:53 AM 30.0 °F 22.4 °F 21.0 °F 69% 30.26 in 10.0 mi WNW 8.1 mph - N/A   Clear
6:53 AM 32.0 °F 24.8 °F 21.9 °F 66% 30.27 in 10.0 mi WNW 8.1 mph - N/A   Clear
7:53 AM 37.9 °F 32.7 °F 21.9 °F 53% 30.27 in 10.0 mi NW 6.9 mph - N/A   Clear
8:53 AM 43.0 °F 41.3 °F 23.0 °F 45% 30.27 in 10.0 mi North 3.5 mph - N/A   Clear
9:53 AM 48.0 °F - 19.9 °F 33% 30.26 in 10.0 mi NNW 9.2 mph - N/A   Clear
10:53 AM 51.1 °F - 17.1 °F 26% 30.26 in 10.0 mi North 10.4 mph - N/A   Clear
11:53 AM 53.1 °F - 17.1 °F 24% 30.25 in 10.0 mi NNW 11.5 mph 20.7 mph N/A   Clear
12:53 PM 55.9 °F - 17.1 °F 22% 30.22 in 10.0 mi NW 15.0 mph 21.9 mph N/A   Clear
1:53 PM 59.0 °F - 19.0 °F 21% 30.19 in 10.0 mi NNW 11.5 mph 18.4 mph N/A   Clear
2:53 PM 59.0 °F - 17.1 °F 20% 30.18 in 10.0 mi NNW 8.1 mph 17.3 mph N/A   Clear
3:53 PM 61.0 °F - 17.1 °F 18% 30.16 in 10.0 mi NNW 12.7 mph 19.6 mph N/A   Clear
4:53 PM 61.0 °F - 16.0 °F 17% 30.15 in 10.0 mi NW 10.4 mph 18.4 mph N/A   Clear
5:53 PM 61.0 °F - 19.0 °F 20% 30.14 in 10.0 mi NW 11.5 mph 23.0 mph N/A   Clear
6:53 PM 60.1 °F - 16.0 °F 18% 30.12 in 10.0 mi NW 9.2 mph - N/A   Clear
7:53 PM 57.9 °F - 14.0 °F 18% 30.12 in 10.0 mi NW 5.8 mph - N/A   Clear
8:53 PM 57.0 °F - 14.0 °F 18% 30.11 in 10.0 mi NW 3.5 mph - N/A   Clear
9:53 PM 51.1 °F - 17.1 °F 26% 30.12 in 10.0 mi NE 4.6 mph - N/A   Clear
10:53 PM 50.0 °F - 19.9 °F 31% 30.11 in 10.0 mi ESE 3.5 mph - N/A   Clear
11:53 PM 46.0 °F 43.9 °F 21.0 °F 37% 30.12 in 10.0 mi SE 4.6 mph - N/A   Clear